Meteo Giornale » Osservazioni meteo India » M O Ranchi
ore: 11:00 - Osservazioni Meteo M O Ranchi
Lat. 23° 19' N Lon. 85° 19' E Alt. 652 metri s.l.m.
24 °C
Temporale
Temp. 24 Ore
24 °C
26 °C
Nord
0 Km/h
Dew point 24 °C
Umidità 100 %
Visibilità 0.8 Km
Il sole sorge alle ore 05:30
Il sole tramonta alle ore 18:06
| Data e Ora | Cielo e Fenomeni | T °C | DP °C | Um. % | Pres. hPa | Vis. km | Vento km/h | |
|---|---|---|---|---|---|---|---|---|
| Oggi h: 11:00 | Temporale | 24 | 24 | 100 | 1007 | 0.8 | N 0 | |
| Oggi h: 10:30 | Temporale | 24 | 24 | 100 | 1007 | 0.8 | N 5.5 | |
| Oggi h: 10:00 | Temporale | 24 | 24 | 100 | 1007 | 0.9 | N 5.5 | |
| Oggi h: 09:30 | Temporale | 24 | 23 | 94 | 1007 | 1 | N 5.5 | |
| Oggi h: 09:00 | Temporale | 24 | 24 | 100 | 1007 | 0.7 | N 5.5 | |
| Oggi h: 08:30 | Temporale | 24 | 24 | 100 | 1007 | 0.9 | N 5.5 | |
| Oggi h: 08:00 | Temporale | 25 | 24 | 94 | 1006 | 2 | N 5.5 | |
| Oggi h: 07:30 | Pioggia | 24 | 24 | 100 | 1006 | 2 | N 5.5 | |
| Oggi h: 07:00 | Pioggia | 24 | 24 | 100 | 1006 | 2 | N 0 | |
| Oggi h: 06:30 | Pioggia | 24 | 24 | 100 | 1005 | 2 | N 3.7 | |
| Oggi h: 05:30 | Pioggia | 24 | 23 | 94 | 1005 | 2 | N 0 | |
| Oggi h: 04:30 | Pioggia | 24 | 23 | 94 | 1005 | 2 | N 0 | |
| Oggi h: 03:30 | Pioggia | 24 | 23 | 94 | 1005 | 2 | N 0 | |
| Oggi h: 02:30 | Pioggia | 24 | 23 | 94 | 1005 | 2 | N 7.4 | |
| Oggi h: 01:30 | Temporale | 24 | 23 | 94 | 1005 | 2 | N 9.3 | |
| Oggi h: 00:30 | Temporale | 24 | 23 | 94 | 1005 | 2 | N 9.3 | |
| Ieri h: 23:30 | Temporale | 24 | 23 | 94 | 1005 | 2 | N/NO 14.8 | |
| Ieri h: 22:30 | Temporale | 24 | 23 | 94 | 1006 | 1 | NO 13 | |
| Ieri h: 22:00 | Temporale | 24 | 24 | 100 | 1007 | 1 | N 9.3 | |
| Ieri h: 21:30 | Temporale | 24 | 24 | 100 | 1007 | 2 | N 5.5 | |
| Ieri h: 21:00 | Temporale | 24 | 23 | 94 | 1006 | 2 | N 9.3 | |
| Ieri h: 20:30 | Temporale | 24 | 23 | 94 | 1006 | 2 | N/NO 9.3 | |
| Ieri h: 20:00 | Temporale | 24 | 23 | 94 | 1005 | 2 | N/NO 9.3 | |
| Ieri h: 19:30 | Pioggia | 24 | 23 | 94 | 1005 | 2 | NO 7.4 | |
| Ieri h: 19:00 | Pioggia | 24 | 23 | 94 | 1004 | 2 | N/NO 7.4 | |
| Ieri h: 18:30 | Pioggia | 24 | 23 | 94 | 1004 | 2 | N/NO 9.3 | |
| Ieri h: 18:00 | Pioggia | 25 | 24 | 94 | 1004 | 2 | N/NO 9.3 | |
| Ieri h: 17:30 | Temporale | 25 | 24 | 94 | 1004 | 2 | NO 7.4 | |
| Ieri h: 17:00 | Temporale | 25 | 24 | 94 | 1003 | 2 | N 7.4 | |
| Ieri h: 16:30 | Temporale | 24 | 24 | 100 | 1003 | 2 | N 3.7 | |
| Ieri h: 16:00 | Temporale | 24 | 24 | 100 | 1003 | 2 | N 7.4 | |
| Ieri h: 15:30 | Temporale | 24 | 24 | 100 | 1003 | 2 | N/NE 18.5 | |
| Ieri h: 15:00 | Pioggia | 26 | 24 | 88 | 1003 | 2 | N/NO 13 | |
| Ieri h: 14:30 | Pioggia | 25 | 24 | 94 | 1004 | 2 | N 9.3 | |
| Ieri h: 14:00 | Pioggia | 24 | 24 | 100 | 1004 | 2 | N/NO 14.8 | |
| Ieri h: 13:30 | Pioggia | 26 | 24 | 88 | 1004 | 2 | N/NO 18.5 | |
| Ieri h: 13:00 | Pioggia | 25 | 24 | 94 | 1004 | 2 | N 11.1 | |
| Ieri h: 12:30 | Pioggia | 25 | 24 | 94 | 1005 | 2 | N 11.1 | |
| Ieri h: 12:00 | Pioggia | 25 | 24 | 94 | 1005 | 2 | N/NO 9.3 | |
| Ieri h: 11:30 | Pioggia | 25 | 24 | 94 | 1006 | 2 | N/NO 11.1 | |



